Location: *
(32.8140°S, 174.6161°E)
Time: 07:23:53
(UTC+00:00)

Elektron 1 - Pass Details

Date: 10 December 2019
Orbit: 413 x 6303 km, 60.8° (Epoch: 17 January)

Event Time Altitude Azimuth Distance (km) Brightness Sun altitude
Rises 15:56:25 0° 218° (SW) 3,529 8.5 -13.1°
Reaches altitude 10° 15:59:33 10° 223° (SW) 2,093 7.2 -12.6°
Maximum altitude 16:03:31 47° 297° (WNW) 633 4.2 -11.9°
Drops below altitude 10° 16:06:22 10° 13° (NNE) 1,490 6.3 -11.5°
Sets 16:08:14 0° 20° (NNE) 2,365 7.4 -11.2°
